Date String (YYYY-MM-DD hh:mm:ss) UTC,Instrument flags,absolute air pressure of the measurement (hPa),sample flow rate (lpm),inlet stack bypass flow (lpm),air temperature of the measurement (°C),ambient temperature measured by the external sensor (°C),aerosol sample conditioner tube jacket temperature (°C),OPC LED temperature (°C),internal box temperature (°C),relative humidity of the measurement (%),span deviation,mass concentration of particles derived from Lorenz-Mie calculation of OPC scattering (μg/m³),mass concentration of particles derived from Lorenz-Mie calculation of OPC scattering (μg/m³),mass concentration of particles derived from Lorenz-Mie calculation of OPC scattering (μg/m³)
DateTimeUTC,F1_M11,P_M11,Q1_M11,Q2_M11,T1_M11,T2_M11,T3_M11,T4_M11,T5_M11,U1_M11,ZSPAN_M11,X0_M11,X2_M11,X1_M11
2023-08-30 03:00:00,SystemResetWarning,0836.3,5.00,000.00,028.1,026.9,000.0,036.4,029.9,28.9,0000.5,0009.32,0005.49,0005.03
2023-08-30 03:01:00,SystemResetWarning,0836.2,4.99,000.00,028.1,026.2,000.0,036.3,029.7,28.4,-000.1,0009.38,0005.50,0005.04
2023-08-30 03:02:00,SystemResetWarning,0836.2,5.00,000.00,028.0,024.7,000.0,036.2,029.4,28.8,-000.6,0008.82,0005.49,0005.04
2023-08-30 03:03:00,SystemResetWarning,0836.2,5.00,000.00,027.9,024.3,000.0,036.2,029.3,29.0,-000.9,0009.05,0005.51,0005.04
2023-08-30 03:04:00,SystemResetWarning,0836.2,5.02,000.00,027.8,024.6,000.0,036.2,029.2,29.1,-000.6,0009.14,0005.52,0005.05
2023-08-30 03:05:00,SystemResetWarning,0836.2,4.99,000.00,027.8,025.0,000.0,036.2,029.3,29.1,-000.1,0009.74,0005.55,0005.06
2023-08-30 03:06:00,SystemResetWarning,0836.2,5.00,000.00,027.8,025.4,000.0,036.3,029.4,29.0,-000.0,0010.38,0005.55,0005.04
2023-08-30 03:07:00,SystemResetWarning,0836.2,5.00,000.00,027.9,025.7,000.0,036.3,029.5,28.9,0000.5,0010.37,0005.56,0005.04
2023-08-30 03:08:00,SystemResetWarning,0836.3,5.00,000.00,027.9,026.1,000.0,036.3,029.6,29.2,0000.5,0010.74,0005.55,0005.02
2023-08-30 03:09:00,SystemResetWarning,0836.2,5.00,000.00,027.9,026.3,000.0,036.3,029.7,29.2,0000.2,0012.12,0005.60,0005.00
2023-08-30 03:10:00,SystemResetWarning,0836.2,5.00,000.00,028.0,026.6,000.0,036.4,029.8,28.9,0000.2,0013.20,0005.60,0004.99
2023-08-30 03:11:00,SystemResetWarning,0836.3,5.00,000.00,028.0,026.8,000.0,036.4,029.8,28.6,0000.3,0013.51,0005.59,0004.99
2023-08-30 03:12:00,SystemResetWarning,0836.2,4.99,000.00,028.1,026.9,000.0,036.4,029.9,28.1,0000.6,0014.28,0005.57,0004.96
2023-08-30 03:13:00,SystemResetWarning,0836.2,5.00,000.00,028.1,025.7,000.0,036.3,029.7,28.4,0000.7,0014.41,0005.57,0004.93
2023-08-30 03:14:00,SystemResetWarning,0836.2,5.01,000.00,028.0,024.5,000.0,036.2,029.4,28.4,0000.8,0014.21,0005.53,0004.90
2023-08-30 03:15:00,SystemResetWarning,0836.2,5.00,000.00,027.9,024.3,000.0,036.2,029.3,28.6,0000.8,0014.24,0005.50,0004.85
2023-08-30 03:16:00,SystemResetWarning,0836.2,5.00,000.00,027.8,024.6,000.0,036.2,029.2,29.0,0000.2,0014.36,0005.49,0004.81
2023-08-30 03:17:00,SystemResetWarning,0836.2,5.00,000.00,027.8,025.0,000.0,036.3,029.3,29.2,-000.2,0015.17,0005.47,0004.79
2023-08-30 03:18:00,SystemResetWarning,0836.3,5.00,000.00,027.9,025.5,000.0,036.3,029.4,29.0,-000.2,0015.35,0005.44,0004.78
2023-08-30 03:19:00,SystemResetWarning,0836.3,5.00,000.00,027.9,025.8,000.0,036.3,029.5,29.5,0000.4,0014.94,0005.41,0004.76
2023-08-30 03:20:00,SystemResetWarning,0836.4,5.00,000.00,027.9,026.1,000.0,036.4,029.6,29.6,0000.6,0013.68,0005.35,0004.74
2023-08-30 03:21:00,SystemResetWarning,0836.4,5.00,000.00,028.0,026.4,000.0,036.4,029.7,29.3,0000.3,0012.56,0005.35,0004.73
2023-08-30 03:22:00,SystemResetWarning,0836.4,5.00,000.00,028.0,026.6,000.0,036.4,029.8,29.3,-000.1,0012.63,0005.35,0004.72
2023-08-30 03:23:00,SystemResetWarning,0836.4,5.00,000.00,028.1,026.8,000.0,036.4,029.8,28.8,0000.1,0012.12,0005.33,0004.71
2023-08-30 03:24:00,SystemResetWarning,0836.4,4.99,000.00,028.1,026.8,000.0,036.4,029.9,28.7,0000.7,0012.16,0005.36,0004.72
2023-08-30 03:25:00,SystemResetWarning,0836.3,4.99,000.00,028.1,025.4,000.0,036.3,029.5,28.8,0001.2,0012.19,0005.37,0004.72
2023-08-30 03:26:00,SystemResetWarning,0836.3,5.01,000.00,028.0,024.5,000.0,036.2,029.3,28.9,0001.0,0012.06,0005.35,0004.73
2023-08-30 03:27:00,SystemResetWarning,0836.2,5.01,000.00,027.9,024.5,000.0,036.2,029.2,29.2,0001.2,0012.03,0005.32,0004.75
2023-08-30 03:28:00,SystemResetWarning,0836.3,5.00,000.00,027.8,024.8,000.0,036.3,029.2,29.3,0001.1,0011.00,0005.36,0004.76
2023-08-30 03:29:00,SystemResetWarning,0836.3,5.00,000.00,027.8,025.2,000.0,036.3,029.3,29.1,0000.3,0011.21,0005.39,0004.75
2023-08-30 03:30:00,SystemResetWarning,0836.3,5.00,000.00,027.9,025.6,000.0,036.3,029.5,28.8,0000.1,0011.31,0005.42,0004.75
2023-08-30 03:31:00,SystemResetWarning,0836.3,5.01,000.00,027.9,025.9,000.0,036.4,029.6,28.7,0000.0,0011.90,0005.37,0004.74
2023-08-30 03:32:00,SystemResetWarning,0836.3,4.99,000.00,027.9,026.2,000.0,036.4,029.6,28.8,0000.3,0012.39,0005.31,0004.72
2023-08-30 03:33:00,SystemResetWarning,0836.3,4.99,000.00,028.0,026.4,000.0,036.4,029.7,28.3,0000.4,0012.19,0005.26,0004.68
2023-08-30 03:34:00,SystemResetWarning,0836.3,5.00,000.00,028.0,026.7,000.0,036.4,029.8,28.5,-000.3,0012.03,0005.21,0004.65
2023-08-30 03:35:00,SystemResetWarning,0836.3,5.01,000.00,028.1,026.8,000.0,036.5,029.8,28.6,-000.3,0012.55,0005.19,0004.63
2023-08-30 03:36:00,SystemResetWarning,0836.2,5.01,000.00,028.1,026.9,000.0,036.5,029.9,28.8,-000.5,0012.74,0005.19,0004.62
2023-08-30 03:37:00,SystemResetWarning,0836.3,4.98,000.00,028.1,025.8,000.0,036.4,029.7,28.6,-000.5,0013.78,0005.19,0004.60
2023-08-30 03:38:00,SystemResetWarning,0836.2,5.00,000.00,028.1,024.5,000.0,036.3,029.5,29.2,-000.5,0013.15,0005.21,0004.58
2023-08-30 03:39:00,SystemResetWarning,0836.2,5.01,000.00,028.0,024.4,000.0,036.3,029.3,28.8,-000.4,0012.73,0005.19,0004.56
2023-08-30 03:40:00,SystemResetWarning,0836.2,5.02,000.00,027.9,024.7,000.0,036.3,029.2,28.9,0000.1,0012.35,0005.19,0004.55
2023-08-30 03:41:00,SystemResetWarning,0836.2,5.00,000.00,027.9,025.1,000.0,036.3,029.3,28.2,0000.3,0012.30,0005.15,0004.54
2023-08-30 03:42:00,SystemResetWarning,0836.2,5.00,000.00,027.9,025.5,000.0,036.4,029.4,28.7,0000.4,0011.65,0005.18,0004.54
2023-08-30 03:43:00,SystemResetWarning,0836.2,5.00,000.00,027.9,025.8,000.0,036.4,029.5,28.7,0000.2,0011.00,0005.18,0004.53
2023-08-30 03:44:00,SystemResetWarning,0836.2,4.99,000.00,027.9,026.1,000.0,036.4,029.6,28.8,0000.7,0010.65,0005.19,0004.54
2023-08-30 03:45:00,SystemResetWarning,0836.2,5.00,000.00,028.0,026.4,000.0,036.4,029.7,28.5,0000.6,0010.50,0005.22,0004.55
2023-08-30 03:46:00,SystemResetWarning,0836.2,5.00,000.00,028.0,026.6,000.0,036.5,029.8,28.3,0000.5,0009.89,0005.20,0004.54
2023-08-30 03:47:00,SystemResetWarning,0836.2,5.00,000.00,028.1,026.8,000.0,036.5,029.8,28.4,0000.7,0009.75,0005.21,0004.55
2023-08-30 03:48:00,SystemResetWarning,0836.2,5.00,000.00,028.1,027.0,000.0,036.5,029.9,28.3,0000.0,0009.33,0005.18,0004.56
2023-08-30 03:49:00,SystemResetWarning,0836.2,4.99,000.00,028.1,026.2,000.0,036.4,029.7,28.1,0000.0,0009.62,0005.16,0004.57
2023-08-30 03:50:00,SystemResetWarning,0836.2,5.00,000.00,028.0,024.4,000.0,036.3,029.3,28.5,0000.0,0010.28,0005.13,0004.57
2023-08-30 03:51:00,SystemResetWarning,0836.1,5.01,000.00,027.9,023.5,000.0,036.2,029.1,28.9,0000.7,0010.41,0005.09,0004.57
2023-08-30 03:52:00,SystemResetWarning,0836.1,5.01,000.00,027.8,023.6,000.0,036.2,029.0,29.1,0000.4,0010.51,0005.08,0004.58
2023-08-30 03:53:00,SystemResetWarning,0836.1,5.00,000.00,027.7,024.0,000.0,036.2,028.9,29.1,0000.4,0010.47,0005.06,0004.58
2023-08-30 03:54:00,SystemResetWarning,0836.1,4.99,000.00,027.7,024.5,000.0,036.2,029.1,29.2,0000.2,0010.45,0005.05,0004.58
2023-08-30 03:55:00,SystemResetWarning,0836.2,5.00,000.00,027.7,024.9,000.0,036.3,029.2,29.1,-000.1,0010.91,0005.04,0004.58
2023-08-30 03:56:00,SystemResetWarning,0836.2,5.00,000.00,027.7,025.3,000.0,036.3,029.3,29.1,-000.5,0011.28,0005.04,0004.59
2023-08-30 03:57:00,SystemResetWarning,0836.1,5.00,000.00,027.7,025.7,000.0,036.3,029.4,28.9,-000.3,0011.60,0005.02,0004.60
2023-08-30 03:58:00,SystemResetWarning,0836.1,5.00,000.00,027.8,026.0,000.0,036.3,029.5,28.9,-000.0,0011.94,0005.04,0004.60
2023-08-30 03:59:00,SystemResetWarning,0836.1,4.99,000.00,027.8,026.2,000.0,036.3,029.5,29.2,-001.1,0011.98,0005.05,0004.62
